Time,TemperatureF,DewpointF,PressureIn,WindDirection,WindDirectionDegrees,WindSpeedMPH,WindSpeedGustMPH,Humidity,HourlyPrecipIn,Conditions,Clouds,dailyrainin,SoftwareType,DateUTC
2013-03-08 00:04:00,36.4,27.0,30.48,NNW,330,4.0,16.0,69,0.00,,,0.00,weatherlink.com 1.10,2013-03-08 05:04:00,
2013-03-08 00:19:00,36.4,27.0,30.48,NNE,15,8.0,15.0,70,0.00,,,0.00,weatherlink.com 1.10,2013-03-08 05:19:00,
2013-03-08 00:34:00,36.3,28.0,30.48,North,355,10.0,14.0,71,0.00,,,0.00,weatherlink.com 1.10,2013-03-08 05:34:00,
2013-03-08 00:49:00,36.1,28.0,30.48,North,355,11.0,16.0,72,0.00,,,0.00,weatherlink.com 1.10,2013-03-08 05:49:00,
2013-03-08 01:04:00,35.9,28.0,30.48,NW,308,5.0,10.0,73,0.00,,,0.00,weatherlink.com 1.10,2013-03-08 06:04:00,
2013-03-08 01:19:00,35.7,27.0,30.47,NNW,331,4.0,12.0,72,0.00,,,0.00,weatherlink.com 1.10,2013-03-08 06:19:00,
2013-03-08 01:34:00,35.5,27.0,30.48,North,5,5.0,13.0,71,0.00,,,0.00,weatherlink.com 1.10,2013-03-08 06:34:00,
2013-03-08 01:49:00,35.1,26.0,30.48,NNW,328,5.0,12.0,70,0.00,,,0.00,weatherlink.com 1.10,2013-03-08 06:49:00,
2013-03-08 02:04:00,34.6,26.0,30.48,NNW,333,2.0,11.0,70,0.00,,,0.00,weatherlink.com 1.10,2013-03-08 07:04:00,
2013-03-08 02:19:00,34.5,25.0,30.47,NNW,340,1.0,12.0,69,0.00,,,0.00,weatherlink.com 1.10,2013-03-08 07:19:00,
2013-03-08 02:34:00,34.2,25.0,30.47,NNW,333,7.0,9.0,70,0.00,,,0.00,weatherlink.com 1.10,2013-03-08 07:34:00,
2013-03-08 02:49:00,34.2,25.0,30.47,NNW,334,4.0,9.0,69,0.00,,,0.00,weatherlink.com 1.10,2013-03-08 07:49:00,
2013-03-08 03:04:00,34.8,24.0,30.47,NE,39,6.0,18.0,66,0.00,,,0.00,weatherlink.com 1.10,2013-03-08 08:04:00,
2013-03-08 03:19:00,35.0,25.0,30.47,NNE,26,3.0,9.0,67,0.00,,,0.00,weatherlink.com 1.10,2013-03-08 08:19:00,
2013-03-08 03:34:00,35.1,25.0,30.47,North,5,7.0,11.0,66,0.00,,,0.00,weatherlink.com 1.10,2013-03-08 08:34:00,
2013-03-08 03:49:00,34.9,25.0,30.47,North,5,5.0,13.0,66,0.00,,,0.00,weatherlink.com 1.10,2013-03-08 08:49:00,
2013-03-08 04:04:00,34.6,24.0,30.48,NNW,334,7.0,13.0,66,0.00,,,0.00,weatherlink.com 1.10,2013-03-08 09:04:00,
2013-03-08 04:19:00,34.4,23.0,30.47,NNW,327,7.0,22.0,64,0.00,,,0.00,weatherlink.com 1.10,2013-03-08 09:19:00,
2013-03-08 04:34:00,33.9,24.0,30.47,NNW,342,13.0,20.0,66,0.00,,,0.00,weatherlink.com 1.10,2013-03-08 09:34:00,
2013-03-08 04:49:00,34.1,24.0,30.48,North,5,5.0,16.0,66,0.00,,,0.00,weatherlink.com 1.10,2013-03-08 09:49:00,
2013-03-08 05:04:00,34.2,24.0,30.49,NNW,344,10.0,14.0,66,0.00,,,0.00,weatherlink.com 1.10,2013-03-08 10:04:00,
2013-03-08 05:19:00,34.3,23.0,30.49,NNW,329,8.0,15.0,64,0.00,,,0.00,weatherlink.com 1.10,2013-03-08 10:19:00,
2013-03-08 05:34:00,34.3,23.0,30.50,WNW,288,12.0,20.0,64,0.00,,,0.00,weatherlink.com 1.10,2013-03-08 10:34:00,
2013-03-08 05:49:00,34.3,23.0,30.50,North,360,14.0,22.0,64,0.00,,,0.00,weatherlink.com 1.10,2013-03-08 10:49:00,
2013-03-08 06:04:00,34.2,24.0,30.50,NNW,348,18.0,20.0,66,0.00,,,0.00,weatherlink.com 1.10,2013-03-08 11:04:00,
2013-03-08 06:19:00,34.0,24.0,30.51,NW,316,3.0,18.0,68,0.00,,,0.00,weatherlink.com 1.10,2013-03-08 11:19:00,
2013-03-08 06:34:00,33.7,25.0,30.51,North,355,8.0,12.0,69,0.00,,,0.00,weatherlink.com 1.10,2013-03-08 11:34:00,
2013-03-08 06:51:00,33.6,24.0,30.52,NE,54,4.0,12.0,68,0.00,,,0.00,weatherlink.com 1.10,2013-03-08 11:51:00,
2013-03-08 07:05:00,33.8,24.0,30.52,NNE,19,9.0,15.0,67,0.00,,,0.00,weatherlink.com 1.10,2013-03-08 12:05:00,
2013-03-08 07:20:00,33.8,24.0,30.53,ENE,63,8.0,19.0,67,0.00,,,0.00,weatherlink.com 1.10,2013-03-08 12:20:00,
2013-03-08 07:35:00,34.4,24.0,30.53,NNE,26,1.0,16.0,66,0.00,,,0.00,weatherlink.com 1.10,2013-03-08 12:35:00,
2013-03-08 07:50:00,34.1,23.0,30.54,North,355,7.0,16.0,65,0.00,,,0.00,weatherlink.com 1.10,2013-03-08 12:50:00,
2013-03-08 08:05:00,34.2,23.0,30.54,North,9,2.0,11.0,65,0.00,,,0.00,weatherlink.com 1.10,2013-03-08 13:05:00,
2013-03-08 08:20:00,34.6,23.0,30.54,North,355,4.0,23.0,63,0.00,,,0.00,weatherlink.com 1.10,2013-03-08 13:20:00,
2013-03-08 08:35:00,34.4,22.0,30.55,NW,311,11.0,25.0,62,0.00,,,0.00,weatherlink.com 1.10,2013-03-08 13:35:00,
2013-03-08 08:50:00,35.6,23.0,30.55,NW,312,15.0,19.0,61,0.00,,,0.00,weatherlink.com 1.10,2013-03-08 13:50:00,
2013-03-08 09:05:00,34.7,23.0,30.55,NE,48,12.0,24.0,62,0.00,,,0.00,weatherlink.com 1.10,2013-03-08 14:05:00,
2013-03-08 09:20:00,35.6,22.0,30.53,North,360,19.0,27.0,59,0.00,,,0.00,weatherlink.com 1.10,2013-03-08 14:20:00,
2013-03-08 09:35:00,35.2,23.0,30.54,NNE,21,12.0,26.0,61,0.00,,,0.00,weatherlink.com 1.10,2013-03-08 14:35:00,
2013-03-08 09:50:00,35.4,23.0,30.55,NW,307,6.0,19.0,61,0.00,,,0.00,weatherlink.com 1.10,2013-03-08 14:50:00,
2013-03-08 10:05:00,35.6,23.0,30.55,North,9,16.0,28.0,60,0.00,,,0.00,weatherlink.com 1.10,2013-03-08 15:05:00,
2013-03-08 10:20:00,35.8,23.0,30.55,NNE,32,6.0,27.0,61,0.00,,,0.00,weatherlink.com 1.10,2013-03-08 15:20:00,
2013-03-08 10:35:00,36.7,24.0,30.55,North,360,7.0,19.0,61,0.00,,,0.00,weatherlink.com 1.10,2013-03-08 15:35:00,
2013-03-08 10:50:00,36.5,24.0,30.55,North,5,7.0,22.0,60,0.00,,,0.00,weatherlink.com 1.10,2013-03-08 15:50:00,
2013-03-08 11:06:00,37.1,24.0,30.55,NE,39,6.0,23.0,59,0.00,,,0.00,weatherlink.com 1.10,2013-03-08 16:06:00,
2013-03-08 11:20:00,37.5,24.0,30.54,NE,34,13.0,22.0,58,0.00,,,0.00,weatherlink.com 1.10,2013-03-08 16:20:00,
2013-03-08 11:35:00,37.7,25.0,30.54,North,5,10.0,19.0,60,0.00,,,0.00,weatherlink.com 1.10,2013-03-08 16:35:00,
2013-03-08 11:50:00,37.9,25.0,30.54,NNE,19,6.0,24.0,59,0.00,,,0.00,weatherlink.com 1.10,2013-03-08 16:50:00,
2013-03-08 12:05:00,37.9,24.0,30.53,NW,318,12.0,24.0,58,0.00,,,0.00,weatherlink.com 1.10,2013-03-08 17:05:00,
2013-03-08 12:20:00,37.8,25.0,30.53,NNW,336,15.0,31.0,60,0.00,,,0.00,weatherlink.com 1.10,2013-03-08 17:20:00,
2013-03-08 12:35:00,38.4,25.0,30.53,NNW,346,11.0,24.0,60,0.00,,,0.00,weatherlink.com 1.10,2013-03-08 17:35:00,
2013-03-08 12:50:00,38.8,26.0,30.52,North,5,20.0,20.0,60,0.00,,,0.00,weatherlink.com 1.10,2013-03-08 17:50:00,
2013-03-08 13:05:00,38.9,25.0,30.52,NNE,21,7.0,21.0,59,0.00,,,0.00,weatherlink.com 1.10,2013-03-08 18:05:00,
2013-03-08 13:20:00,38.9,25.0,30.52,NNE,22,9.0,25.0,59,0.00,,,0.00,weatherlink.com 1.10,2013-03-08 18:20:00,
2013-03-08 13:35:00,38.9,25.0,30.52,North,11,12.0,23.0,59,0.00,,,0.00,weatherlink.com 1.10,2013-03-08 18:35:00,
2013-03-08 13:50:00,39.6,26.0,30.51,NNW,344,4.0,18.0,58,0.00,,,0.00,weatherlink.com 1.10,2013-03-08 18:50:00,
2013-03-08 14:05:00,39.7,25.0,30.52,NNW,348,7.0,14.0,57,0.00,,,0.00,weatherlink.com 1.10,2013-03-08 19:05:00,
2013-03-08 14:20:00,40.2,26.0,30.51,NNE,26,0.0,14.0,57,0.00,,,0.00,weatherlink.com 1.10,2013-03-08 19:20:00,
2013-03-08 14:35:00,40.6,26.0,30.51,NE,51,3.0,21.0,56,0.00,,,0.00,weatherlink.com 1.10,2013-03-08 19:35:00,
2013-03-08 14:50:00,41.2,26.0,30.51,NE,34,13.0,14.0,55,0.00,,,0.00,weatherlink.com 1.10,2013-03-08 19:50:00,
2013-03-08 15:05:00,41.1,27.0,30.51,NNW,348,8.0,15.0,57,0.00,,,0.00,weatherlink.com 1.10,2013-03-08 20:05:00,
2013-03-08 15:20:00,42.0,27.0,30.51,NNE,24,4.0,14.0,56,0.00,,,0.00,weatherlink.com 1.10,2013-03-08 20:20:00,
2013-03-08 15:35:00,41.5,27.0,30.51,NNE,20,7.0,19.0,56,0.00,,,0.00,weatherlink.com 1.10,2013-03-08 20:35:00,
2013-03-08 15:50:00,41.9,27.0,30.52,North,5,13.0,15.0,55,0.00,,,0.00,weatherlink.com 1.10,2013-03-08 20:50:00,
2013-03-08 16:05:00,41.3,27.0,30.52,NNE,21,9.0,20.0,57,0.00,,,0.00,weatherlink.com 1.10,2013-03-08 21:05:00,
2013-03-08 16:20:00,41.6,27.0,30.53,North,9,9.0,14.0,56,0.00,,,0.00,weatherlink.com 1.10,2013-03-08 21:20:00,
2013-03-08 16:35:00,41.5,27.0,30.53,North,5,13.0,18.0,56,0.00,,,0.00,weatherlink.com 1.10,2013-03-08 21:35:00,
2013-03-08 16:50:00,40.5,27.0,30.54,North,355,3.0,18.0,59,0.00,,,0.00,weatherlink.com 1.10,2013-03-08 21:50:00,
2013-03-08 17:05:00,40.6,27.0,30.54,NNE,28,6.0,19.0,58,0.00,,,0.00,weatherlink.com 1.10,2013-03-08 22:05:00,
2013-03-08 17:20:00,40.1,27.0,30.54,North,355,21.0,24.0,60,0.00,,,0.00,weatherlink.com 1.10,2013-03-08 22:20:00,
2013-03-08 17:35:00,39.9,27.0,30.56,North,9,6.0,14.0,61,0.00,,,0.00,weatherlink.com 1.10,2013-03-08 22:35:00,
2013-03-08 17:50:00,39.8,27.0,30.56,NE,48,3.0,10.0,61,0.00,,,0.00,weatherlink.com 1.10,2013-03-08 22:50:00,
2013-03-08 18:05:00,39.3,27.0,30.57,ENE,59,1.0,8.0,61,0.00,,,0.00,weatherlink.com 1.10,2013-03-08 23:05:00,
2013-03-08 18:20:00,38.9,27.0,30.57,North,5,0.0,5.0,62,0.00,,,0.00,weatherlink.com 1.10,2013-03-08 23:20:00,
2013-03-08 18:35:00,38.4,27.0,30.58,NE,45,0.0,4.0,64,0.00,,,0.00,weatherlink.com 1.10,2013-03-08 23:35:00,
2013-03-08 18:50:00,36.9,27.0,30.58,NE,45,0.0,0.0,67,0.00,,,0.00,weatherlink.com 1.10,2013-03-08 23:50:00,
2013-03-08 19:05:00,36.0,27.0,30.59,ENE,57,0.0,1.0,70,0.00,,,0.00,weatherlink.com 1.10,2013-03-09 00:05:00,
2013-03-08 19:20:00,36.1,26.0,30.60,ESE,115,0.0,6.0,68,0.00,,,0.00,weatherlink.com 1.10,2013-03-09 00:20:00,
2013-03-08 19:36:00,35.9,26.0,30.60,ENE,68,0.0,4.0,68,0.00,,,0.00,weatherlink.com 1.10,2013-03-09 00:36:00,
2013-03-08 19:51:00,35.7,26.0,30.61,ENE,68,0.0,0.0,69,0.00,,,0.00,weatherlink.com 1.10,2013-03-09 00:51:00,
2013-03-08 20:06:00,34.9,26.0,30.62,ENE,69,0.0,2.0,71,0.00,,,0.00,weatherlink.com 1.10,2013-03-09 01:06:00,
2013-03-08 20:21:00,34.8,26.0,30.62,SE,127,0.0,5.0,71,0.00,,,0.00,weatherlink.com 1.10,2013-03-09 01:21:00,
2013-03-08 20:36:00,35.0,26.0,30.62,SE,137,0.0,0.0,70,0.00,,,0.00,weatherlink.com 1.10,2013-03-09 01:36:00,
2013-03-08 20:51:00,34.0,26.0,30.63,SE,137,0.0,2.0,72,0.00,,,0.00,weatherlink.com 1.10,2013-03-09 01:51:00,
2013-03-08 21:06:00,33.5,26.0,30.62,SE,128,0.0,2.0,73,0.00,,,0.00,weatherlink.com 1.10,2013-03-09 02:06:00,
2013-03-08 21:21:00,32.6,26.0,30.62,NE,36,0.0,4.0,76,0.00,,,0.00,weatherlink.com 1.10,2013-03-09 02:21:00,
2013-03-08 21:36:00,31.7,25.0,30.62,NE,36,0.0,0.0,77,0.00,,,0.00,weatherlink.com 1.10,2013-03-09 02:36:00,
2013-03-08 21:51:00,31.7,25.0,30.62,ENE,78,1.0,4.0,76,0.00,,,0.00,weatherlink.com 1.10,2013-03-09 02:51:00,
2013-03-08 22:06:00,32.8,25.0,30.61,East,94,4.0,5.0,74,0.00,,,0.00,weatherlink.com 1.10,2013-03-09 03:06:00,
2013-03-08 22:21:00,31.0,26.0,30.61,NW,304,0.0,4.0,80,0.00,,,0.00,weatherlink.com 1.10,2013-03-09 03:21:00,
2013-03-08 22:36:00,30.4,25.0,30.61,NW,304,0.0,2.0,81,0.00,,,0.00,weatherlink.com 1.10,2013-03-09 03:36:00,
2013-03-08 22:51:00,30.4,25.0,30.61,ENE,65,2.0,4.0,80,0.00,,,0.00,weatherlink.com 1.10,2013-03-09 03:51:00,
2013-03-08 23:06:00,29.4,24.0,30.61,SW,232,1.0,4.0,81,0.00,,,0.00,weatherlink.com 1.10,2013-03-09 04:06:00,
2013-03-08 23:21:00,29.7,25.0,30.62,SW,232,0.0,2.0,81,0.00,,,0.00,weatherlink.com 1.10,2013-03-09 04:21:00,
2013-03-08 23:36:00,29.5,25.0,30.61,SSW,192,0.0,1.0,82,0.00,,,0.00,weatherlink.com 1.10,2013-03-09 04:36:00,
2013-03-08 23:51:00,28.9,24.0,30.61,SSW,192,0.0,0.0,81,0.00,,,0.00,weatherlink.com 1.10,2013-03-09 04:51:00,